Shelbyville, IN

6:21 AM EST on February 09, 2016 (GMT -0500)
Shelbyville Municipal

Weather History for KGEZ - March, 2014

Change the Weather History Date:

Wednesday, March 12, 2014

  Actual Average Record
Temperature  
Mean Temperature 38 °F 40 °F  
Max Temperature 53 °F 50 °F 67 °F (2012)
Min Temperature 22 °F 31 °F 17 °F (1999)
Degree Days  
Heating Degree Days 27 25  
Month to date heating degree days 362 324  
Since 1 July heating degree days 4860 4487  
Cooling Degree Days 0 0  
Month to date cooling degree days 0 0  
Year to date cooling degree days 0 0  
Moisture  
Dew Point 36 °F    
Average Humidity 74    
Maximum Humidity 93    
Minimum Humidity 55    
Precipitation  
Precipitation 0.69 in 0.10 in 1.45 in (2006)
Month to date precipitation 0.88 1.04  
Year to date precipitation 4.76 5.79  
Sea Level Pressure  
Sea Level Pressure 29.54 in    
Wind  
Wind Speed 20 mph (North)    
Max Wind Speed 35 mph    
Max Gust Speed 45 mph    
Visibility 4 miles    
Events Rain , Snow    
T = Trace of Precipitation, MM = Missing Value Source: NWS Daily Summary

Daily Weather History Graph

Daily Weather History Graph

Search for Another Location

Airport or City:

Trip Planner

Search our weather history database for the weather conditions in past years. The results will help you decide how hot, cold, wet, or windy it might be!

Date:

Astronomy

Mar. 12, 2014 Rise Set
Actual Time 7:59 AM EDT 7:47 PM EDT
Civil Twilight 7:32 AM EDT 8:13 PM EDT
Nautical Twilight 7:01 AM EDT 8:45 PM EDT
Astronomical Twilight 6:29 AM EDT 9:16 PM EDT
Moon 4:17 PM EDT (3/12) 5:29 AM EDT (3/12)
Length of Visible Light 12h 41m
Length of Day
11h 47m
Waxing Gibbous, 85% of the Moon is Illuminated
Mar 12
Waxing Gibbous
Mar 16
Full
Mar 23
Last Quarter
Mar 30
New
Apr 7
First Quarter

Hourly Weather History & Observations

Time (EDT) Temp. Windchill Dew Point Humidity Pressure Visibility Wind Dir Wind Speed Gust Speed Precip Events Conditions
12:53 AM 51.1 °F - 44.1 °F 77% 29.51 in 7.0 mi East 9.2 mph - 0.00 in   Overcast
1:53 AM 50.0 °F - 45.0 °F 83% 29.45 in 6.0 mi ESE 5.8 mph - 0.01 in Rain Light Rain
2:30 AM 51.1 °F - 46.9 °F 86% 29.45 in 2.5 mi SSE 9.2 mph - 0.14 in Rain Rain
2:53 AM 52.0 °F - 48.9 °F 89% 29.42 in 2.0 mi SE 10.4 mph - 0.27 in Rain Rain
3:32 AM 51.1 °F - 48.9 °F 92% 29.40 in 1.8 mi NE 6.9 mph - 0.07 in Rain Light Rain
3:36 AM 51.1 °F - 48.9 °F 92% 29.40 in 1.5 mi North 9.2 mph - 0.09 in Rain Rain
3:46 AM 51.1 °F - 48.9 °F 92% 29.39 in 1.5 mi NNE 8.1 mph - 0.12 in Rain Light Rain
3:53 AM 50.0 °F - 48.0 °F 93% 29.37 in 1.5 mi ENE 11.5 mph - 0.13 in Rain Light Rain
4:02 AM 50.0 °F - 46.9 °F 89% 29.37 in 1.8 mi NNE 9.2 mph - 0.02 in Rain Rain
4:13 AM 48.0 °F - 46.0 °F 93% 29.37 in 1.5 mi Variable 5.8 mph - 0.07 in Rain Rain
4:30 AM 48.0 °F - 46.0 °F 93% 29.36 in 2.5 mi NNE 8.1 mph - 0.09 in Rain Light Rain
4:41 AM 46.9 °F - 45.0 °F 93% 29.36 in 3.0 mi NE 12.7 mph - 0.10 in Rain Light Rain
4:53 AM 46.9 °F - 44.1 °F 90% 29.34 in 3.0 mi NE 9.2 mph 21.9 mph 0.10 in Rain Light Rain
5:00 AM 46.9 °F - 44.1 °F 90% 29.36 in 3.0 mi ENE 8.1 mph - 0.00 in Rain Light Rain
5:22 AM 46.0 °F 39.6 °F 43.0 °F 89% 29.33 in 2.5 mi ENE 15.0 mph 20.7 mph 0.01 in   Overcast
5:53 AM 46.0 °F 39.3 °F 42.1 °F 86% 29.28 in 2.5 mi East 16.1 mph - 0.01 in   Overcast
6:02 AM 46.0 °F 40.6 °F 43.0 °F 89% 29.28 in 2.5 mi East 11.5 mph - 0.00 in Rain Light Rain
6:11 AM 46.0 °F 39.3 °F 42.1 °F 86% 29.27 in 2.5 mi ENE 16.1 mph - 0.00 in   Overcast
6:26 AM 44.1 °F 38.6 °F 41.0 °F 89% 29.28 in 2.5 mi North 10.4 mph 27.6 mph 0.02 in Rain Rain
6:40 AM 43.0 °F 35.4 °F 41.0 °F 93% 29.30 in 3.0 mi NNW 16.1 mph 21.9 mph 0.02 in Rain Light Rain
6:48 AM 42.8 °F 32.7 °F 41.0 °F 93% 29.36 in 1.8 mi NW 27.6 mph 41.4 mph 0.12 in Rain Rain
6:53 AM 42.1 °F 32.1 °F 39.0 °F 89% 29.34 in 1.2 mi NNW 25.3 mph 41.4 mph 0.15 in Rain Heavy Rain
7:00 AM 41.0 °F 31.6 °F 21.0 °F 45% 29.33 in 3.0 mi North 20.7 mph 31.1 mph 0.01 in Rain Light Rain
7:07 AM 41.0 °F 31.1 °F 21.0 °F 45% 29.34 in 5.0 mi North 23.0 mph 27.6 mph 0.01 in Rain Light Rain
7:25 AM 41.0 °F 30.5 °F - N/A% 29.33 in 8.0 mi North 26.5 mph 34.5 mph 0.01 in   Overcast
7:32 AM 41.0 °F 30.5 °F - N/A% 29.36 in 8.0 mi North 26.5 mph 34.5 mph 0.01 in   Overcast
7:53 AM 39.9 °F 28.6 °F - N/A% 29.39 in 10.0 mi North 28.8 mph 38.0 mph 0.01 in   Overcast
8:34 AM 37.9 °F 26.8 °F - N/A% 29.42 in 10.0 mi North 24.2 mph 35.7 mph N/A   Overcast
8:53 AM 37.0 °F 24.5 °F - N/A% 29.44 in 10.0 mi NNE 29.9 mph 44.9 mph N/A   Overcast
9:36 AM 36.0 °F 24.7 °F - N/A% 29.48 in 8.0 mi North 21.9 mph 32.2 mph N/A   Overcast
9:53 AM 36.0 °F 23.9 °F - N/A% 29.53 in 4.0 mi North 25.3 mph 33.4 mph 0.00 in   Overcast
9:56 AM 35.1 °F 23.0 °F - N/A% 29.53 in 2.5 mi NNW 24.2 mph 34.5 mph 0.00 in Snow Light Snow
10:00 AM 35.1 °F 23.8 °F - N/A% 29.53 in 1.5 mi NNW 20.7 mph 34.5 mph 0.00 in Snow Light Snow
10:07 AM 34.0 °F 21.8 °F - N/A% 29.54 in 1.0 mi NNW 23.0 mph 32.2 mph 0.00 in Snow Light Snow
10:37 AM 34.0 °F 22.4 °F - N/A% 29.59 in 2.0 mi NNW 20.7 mph 38.0 mph 0.00 in Snow Light Snow
10:44 AM 34.0 °F 21.8 °F - N/A% 29.58 in 1.2 mi NNW 23.0 mph 34.5 mph 0.00 in Snow Light Snow
10:53 AM 34.0 °F 21.5 °F - N/A% 29.58 in 1.2 mi North 24.2 mph 33.4 mph 0.00 in Snow Light Snow
11:07 AM 34.0 °F 21.5 °F - N/A% 29.59 in 2.5 mi NNW 24.2 mph 32.2 mph 0.00 in Snow Light Snow
11:11 AM 34.0 °F 21.5 °F - N/A% 29.60 in 1.8 mi NNW 24.2 mph 32.2 mph 0.00 in Snow Light Snow
11:37 AM 34.0 °F 21.0 °F - N/A% 29.61 in 0.8 mi NNW 26.5 mph 36.8 mph 0.01 in Snow Light Snow
11:47 AM 33.8 °F 21.6 °F - N/A% 29.62 in 1.0 mi NNW 23.0 mph 38.0 mph 0.01 in Snow Light Snow
11:48 AM 35.1 °F 23.5 °F - N/A% 29.63 in 1.0 mi NNW 21.9 mph 38.0 mph 0.01 in Snow Light Snow
12:28 PM 35.1 °F 22.0 °F 34.0 °F 96% 29.67 in 2.0 mi NNW 28.8 mph 38.0 mph 0.00 in Snow Light Snow
12:47 PM 33.8 °F 20.5 °F 33.8 °F 100% 29.68 in 3.0 mi NNW 27.6 mph 34.5 mph 0.00 in Snow Light Snow
12:53 PM 35.1 °F 22.5 °F 34.0 °F 96% 29.69 in 4.0 mi NNW 26.5 mph 34.5 mph 0.00 in Snow Light Snow
1:53 PM 34.0 °F 21.0 °F - N/A% 29.75 in 9.0 mi NNW 26.5 mph 32.2 mph 0.00 in Snow Light Snow
2:53 PM 34.0 °F 22.7 °F 28.9 °F 82% 29.79 in 7.0 mi NNW 19.6 mph 31.1 mph 0.00 in Snow Light Snow
3:53 PM 33.1 °F 20.9 °F 27.0 °F 78% 29.83 in 8.0 mi NW 21.9 mph 32.2 mph 0.00 in Snow Light Snow
4:53 PM 37.0 °F 26.4 °F 27.0 °F 67% 29.86 in 10.0 mi North 20.7 mph - 0.00 in   Overcast
5:53 PM 35.1 °F 23.5 °F 21.9 °F 59% 29.89 in 10.0 mi NNW 21.9 mph 28.8 mph N/A   Scattered Clouds
6:53 PM 30.9 °F 18.4 °F 24.1 °F 76% 29.96 in 10.0 mi NW 20.7 mph - N/A   Mostly Cloudy
7:53 PM 28.9 °F 16.9 °F 21.0 °F 72% 29.99 in 10.0 mi NNW 17.3 mph - N/A   Overcast
8:53 PM 27.0 °F 14.3 °F 19.9 °F 75% 30.03 in 10.0 mi NNW 17.3 mph - N/A   Mostly Cloudy
9:53 PM 27.0 °F 13.5 °F 16.0 °F 63% 30.05 in 10.0 mi NNW 19.6 mph 28.8 mph N/A   Overcast
10:53 PM 24.1 °F 10.1 °F 10.9 °F 57% 30.08 in 10.0 mi NNW 18.4 mph 28.8 mph N/A   Clear
11:53 PM 23.0 °F 9.6 °F 10.9 °F 60% 30.08 in 10.0 mi NW 16.1 mph - N/A   Clear